AL YAH 3

Last updated on Thu Jul 03 2025 00:02:47 GMT+0000 (Coordinated Universal Time)

1 43174U 18012A 25183.22683745 -.00000149 00000+0 00000+0 0 9990 2 43174 0.6464 87.7454 0003911 2.0067 252.2964 1.00271036 27330
UTC large
Height (km)
Speed (km/s)
/
Latitude / Longitude
Inclination (degrees)
Orbital Period (minutes)
Azimuth
Elevation
Range (km)
Doppler Factor

Next 0 passes for location: London (51.5072 / 0.1276)

Sorry there are no passes over London.